Back to catalog

COSMOS 2251 DEB

AliveLEO
NORAD 34857·DEBRIS·🇷🇺 Russia

Launched Jun 16, 1993 from Plesetsk Cosmodrome

Loading…

Next Passes (next 24 hours)

TLE

FreshSource: Space-Track

Epoch: Sep 14, 2026, 13:49 UTC

1 34857U 93036ACB 26257.57583334  .00001752  00000-0  35532-3 0  9994
2 34857  74.0130 299.7758 0064857 353.1810 158.3532 14.60696511919265

Track COSMOS 2251 DEB in real time with AllMySat

Download on the App Store